Regional Weather Roundup
Issued by NWS

Home | Current Version | Previous Version | Text Only | Print | Product List | Glossary On
Versions: 1 2 3 4 5 6 7 8 9 10 11 12 13 14 15 16 17 18 19 20 21 22 23 24 25 26 27 28 29 30 31 32 33 34 35 36 37 38 39 40 41 42 43 44 45 46 47 48 49 50
000
ASCA42 TJSJ 201711
RWRPR
PUERTO RICO/U.S. VIRGIN ISLANDS HOURLY WEATHER ROUNDUP
NATIONAL WEATHER SERVICE SAN JUAN PR
100 PM AST WED AUG 20 2014

PRZ001-004-201800-
PUERTO RICO

CITY           SKY/WX    TMP DP  RH WIND       PRES   REMARKS
SAN JUAN LMM   MOSUNNY   88  79  74 NE17G24   30.00F HX 102
AGUADILLA      MOSUNNY   86  77  74 E18       30.03F HX  97
CEIBA          SUNNY     88  75  66 NE9       30.03F HX  97
$$

PRZ006-007-201800-
U.S. VIRGIN ISLANDS

CITY           SKY/WX    TMP DP  RH WIND       PRES   REMARKS
CHARLOTTE AMA  MOSUNNY   90  73  58 E10       30.00  HX  98
CHRISTIANSTED  MOSUNNY   90  75  62 E16       30.00  HX 100
$$

HOURLY WEATHER ROUNDUP FOR THE NEWS MEDIA

CITY           SKY/WX    TMP DP  RH WIND       PRES   REMARKS
MIAMI          PTSUNNY   91  74  57 SE9       30.07F HX 100
ORLANDO        SUNNY     92  70  48 W7        30.09F HX  97
NEW YORK       PTSUNNY   79  59  50 S9        30.02F
NEWARK         PTSUNNY   82  58  43 SE7       29.99F
CHICAGO        PTSUNNY   82  64  54 SW12      29.91R
HARTFORD       MOSUNNY   77  58  51 NE7       30.00F
BOSTON         MOSUNNY   72  57  59 E10       30.03S
DALLAS         MOSUNNY   89  70  53 S13G22    29.98S HX  94
PHILADELPHIA   MOSUNNY   83  62  49 CALM      29.99F



USA.gov is the U.S. government's official web portal to all federal, state and local government web resources and services.